Vorticity
5 6 6 7 7 8 9 8 7 9 11 11 11 9 8 9 8 6 5 5 5 5 5 5 5 4 4 4 4 5 5 4 4 5 7 7 4 6 7 5 4 6 5
4 3 4 6 7 7 7 9 8 7 10 12 10 9 8 8 8 5 5 4 4 4 5 4 4 4 3 3 4 4 6 5 5 6 6 4 6 6 6 5 4 6 5
4 5 5 5 6 6 6 8 9 8 7 8 11 10 9 8 8 6 5 5 5 5 5 5 4 3 4 4 4 4 4 5 4 7 5 5 7 8 7 5 5 4 4
4 4 3 5 5 6 6 5 7 9 8 7 7 8 9 8 7 6 5 5 5 4 4 4 3 3 4 4 4 4 4 5 6 7 4 5 5 8 6 6 5 6 5
3 3 4 4 4 6 7 7 6 5 8 9 7 6 6 7 6 5 5 5 4 3 3 4 4 4 4 4 4 5 5 6 6 7 5 5 6 4 8 6 5 5 6
2 4 4 3 3 4 6 6 4 6 6 6 8 10 8 7 7 6 5 6 5 4 4 4 4 4 4 5 5 5 6 7 7 7 7 5 6 4 7 6 7 6 6
1 3 3 3 3 4 4 5 7 7 5 5 7 7 8 11 9 7 6 6 5 5 4 4 5 5 5 5 6 6 7 8 7 7 7 6 5 5 5 5 6 6 6
2 2 2 3 3 2 2 3 5 6 7 7 6 5 7 9 8 10 12 8 7 6 6 6 6 7 8 9 10 9 9 9 9 9 8 8 7 6 6 5 5 6 6
2 1 3 3 3 3 2 2 5 7 7 7 8 8 7 7 8 9 9 9 10 10 11 10 10 9 8 7 6 6 6 6 7 8 9 9 9 9 8 8 7 7 7
5 2 2 4 5 4 1 3 5 6 7 8 9 9 8 8 9 9 10 10 9 9 10 9 9 9 10 11 10 11 10 10 10 10 10 10 8 8 8 8 8 8 8
3 1 2 5 8 4 2 3 6 7 7 8 10 10 11 10 9 10 10 11 11 11 11 10 9 8 7 6 7 6 6 6 7 7 8 9 8 9 9 10 10 8 7
6 6 6 6 4 4 3 6 6 7 5 10 9 8 10 8 8 8 8 8 7 6 4 4 3 3 2 2 2 4 2 2 3 3 2 2 3 3 3 3 3 4 5
2 2 4 5 4 4 4 7 5 4 6 9 6 7 6 5 4 4 4 4 3 3 2 2 3 3 4 4 4 4 4 3 3 3 4 4 4 4 5 5 4 3 3
4 3 5 3 3 5 7 7 2 4 6 7 6 6 7 6 5 4 4 4 3 4 4 4 5 6 6 7 9 9 9 10 9 9 8 8 7 6 5 7 9 8 6
2 -0 0 2 5 5 5 4 2 4 4 5 6 5 6 5 5 5 5 6 5 4 4 5 6 8 8 7 7 6 6 7 8 9 9 9 8 8 7 8 9 9 8
-1 -1 1 2 5 4 11 1 4 4 5 6 6 5 5 5 6 5 5 3 6 5 6 6 6 6 5 5 4 4 5 6 6 6 5 4 4 5 5 5 4 3 3
4 2 1 10 6 5 4 4 6 7 7 6 6 5 5 6 5 5 4 5 5 4 4 5 4 3 2 4 4 6 6 6 6 6 5 7 6 6 7 9 14 14 15
3 5 14 12 7 7 6 8 7 11 9 7 6 6 5 5 5 5 4 3 3 4 4 4 4 4 5 5 5 4 5 6 9 10 10 8 8 13 14 3 14 -13 15
15 14 14 12 8 6 8 14 14 10 9 8 5 5 5 5 5 4 4 5 5 5 5 5 5 5 4 5 7 11 12 11 11 11 11 15 12 10 10 4 10 7 7
18 16 11 7 6 14 15 11 12 10 6 5 6 6 6 6 6 6 7 7 6 6 5 4 4 6 10 14 12 12 12 11 11 10 8 10 12 6 8 13 11 3 12
9 5 3 8 16 12 10 8 5 7 6 6 6 7 8 7 8 8 7 6 5 4 5 8 13 16 11 11 10 8 6 9 9 9 11 9 8 10 5 9 12 11 8
5 7 11 14 10 7 5 6 6 6 8 8 9 10 8 8 8 7 5 5 7 11 18 16 11 12 11 8 8 10 11 8 7 7 9 10 11 9 8 6 4 5 6
8 9 10 6 4 5 7 8 10 12 11 11 9 9 7 6 5 6 9 14 19 10 10 11 10 9 9 10 13 11 14 10 13 7 7 6 6 4 5 5 5 5 5
6 8 5 5 6 8 9 11 11 12 10 8 4 3 4 6 8 12 17 5 8 10 11 10 8 9 10 10 10 8 8 6 7 6 5 5 6 7 6 7 8 8 9
6 6 5 5 7 7 6 7 10 8 5 3 3 5 7 9 13 10 7 9 8 9 8 8 9 10 9 8 8 7 6 6 6 4 4 5 5 8 9 8 9 8 11
5 4 5 6 4 4 3 4 9 8 5 4 5 8 9 9 11 7 6 7 8 8 7 8 8 6 8 8 7 6 7 5 5 6 8 8 7 8 8 7 8 9 16
Height
3149 3147 3145 3143 3141 3138 3136 3134 3132 3130 3129 3128 3128 3128 3129 3129 3130 3129 3129 3129 3129 3130 3130 3130 3131 3132 3132 3133 3132 3133 3132 3132 3131 3131 3130 3130 3129 3129 3128 3128 3127 3127 3127
3148 3147 3145 3143 3141 3139 3136 3134 3132 3130 3129 3128 3128 3128 3128 3129 3129 3128 3129 3128 3128 3128 3129 3129 3130 3130 3131 3131 3131 3131 3131 3131 3130 3129 3128 3128 3128 3126 3126 3127 3125 3125 3124
3148 3147 3145 3143 3141 3139 3137 3135 3133 3131 3130 3129 3128 3128 3128 3128 3128 3128 3129 3128 3128 3128 3128 3130 3129 3129 3129 3129 3129 3129 3129 3129 3128 3128 3127 3126 3126 3126 3126 3125 3124 3122 3120
3147 3146 3145 3143 3141 3139 3137 3135 3134 3132 3130 3130 3128 3128 3128 3128 3128 3128 3128 3127 3128 3128 3128 3128 3128 3128 3128 3128 3128 3127 3127 3126 3127 3126 3125 3124 3124 3124 3123 3123 3122 3122 3120
3146 3145 3144 3143 3142 3140 3139 3137 3135 3133 3131 3130 3129 3129 3128 3127 3127 3127 3127 3127 3127 3127 3127 3127 3126 3127 3126 3126 3126 3125 3126 3125 3125 3124 3124 3122 3122 3120 3122 3120 3119 3119 3118
3145 3144 3144 3143 3142 3141 3139 3138 3136 3134 3132 3130 3129 3128 3128 3127 3127 3126 3125 3126 3125 3125 3125 3125 3125 3125 3124 3124 3124 3124 3123 3123 3122 3122 3122 3120 3121 3119 3120 3118 3117 3117 3117
3143 3143 3143 3142 3142 3142 3141 3139 3137 3136 3134 3131 3130 3128 3128 3126 3126 3125 3124 3124 3124 3123 3123 3123 3123 3123 3123 3122 3121 3120 3121 3121 3120 3119 3119 3118 3118 3117 3116 3116 3116 3115 3114
3141 3142 3142 3141 3141 3141 3140 3139 3137 3136 3134 3132 3130 3128 3127 3126 3125 3124 3123 3123 3123 3122 3122 3122 3121 3121 3121 3120 3120 3119 3118 3118 3117 3117 3115 3115 3114 3114 3113 3113 3112 3111 3111
3141 3141 3142 3141 3140 3140 3139 3138 3136 3135 3133 3132 3130 3128 3126 3125 3124 3123 3122 3122 3122 3121 3121 3121 3121 3120 3120 3119 3117 3116 3115 3114 3113 3114 3113 3112 3111 3110 3109 3109 3108 3107 3106
3139 3139 3140 3140 3139 3138 3137 3136 3135 3133 3131 3130 3129 3127 3125 3124 3123 3122 3121 3121 3120 3120 3120 3120 3119 3118 3116 3115 3114 3112 3111 3109 3109 3109 3108 3108 3106 3105 3105 3104 3103 3102 3101
3138 3138 3138 3137 3137 3137 3137 3135 3132 3131 3130 3129 3127 3125 3124 3123 3122 3121 3120 3120 3119 3119 3118 3117 3116 3115 3114 3112 3110 3108 3107 3106 3105 3104 3103 3102 3101 3100 3099 3098 3098 3096 3095
3136 3136 3136 3136 3134 3133 3132 3132 3131 3130 3128 3126 3124 3123 3122 3122 3120 3119 3118 3118 3117 3116 3115 3114 3113 3112 3110 3109 3107 3106 3104 3102 3101 3100 3099 3097 3097 3095 3094 3093 3092 3090 3089
3133 3134 3133 3134 3133 3132 3131 3130 3129 3128 3127 3124 3123 3121 3121 3120 3119 3118 3117 3116 3115 3114 3113 3111 3110 3108 3107 3105 3102 3100 3098 3096 3095 3094 3093 3093 3092 3090 3089 3088 3086 3084 3083
3130 3130 3131 3131 3131 3129 3129 3128 3127 3126 3124 3123 3121 3119 3118 3118 3117 3116 3114 3113 3111 3109 3108 3106 3105 3102 3100 3099 3097 3095 3093 3091 3090 3088 3087 3086 3085 3083 3081 3079 3077 3076 3074
3127 3127 3128 3128 3128 3127 3127 3127 3125 3124 3122 3121 3119 3117 3116 3115 3114 3113 3111 3110 3107 3105 3104 3102 3101 3099 3097 3095 3093 3090 3088 3086 3084 3081 3080 3079 3078 3076 3074 3072 3070 3068 3066
3122 3124 3125 3125 3124 3125 3124 3123 3122 3121 3119 3118 3117 3115 3114 3112 3111 3110 3107 3105 3104 3103 3101 3099 3097 3094 3092 3089 3087 3085 3083 3081 3078 3076 3073 3071 3070 3068 3066 3064 3061 3059 3057
3119 3120 3121 3121 3120 3120 3120 3120 3118 3118 3116 3116 3114 3112 3111 3110 3108 3106 3104 3103 3101 3099 3097 3095 3093 3090 3087 3085 3081 3079 3076 3075 3074 3071 3067 3064 3061 3058 3055 3054 3052 3051 3048
3114 3115 3116 3116 3117 3116 3117 3116 3114 3115 3113 3113 3111 3110 3109 3107 3105 3104 3102 3100 3098 3095 3092 3090 3087 3084 3082 3078 3075 3073 3071 3068 3065 3061 3057 3053 3051 3048 3046 3042 3041 3039 3039
3108 3109 3111 3112 3113 3113 3112 3111 3111 3110 3110 3109 3108 3106 3104 3103 3102 3100 3098 3096 3093 3090 3087 3084 3082 3078 3075 3072 3068 3065 3062 3058 3056 3051 3048 3046 3043 3040 3037 3034 3032 3029 3026
3102 3105 3106 3109 3109 3109 3108 3108 3108 3107 3107 3105 3103 3102 3101 3100 3098 3095 3093 3090 3087 3084 3081 3079 3076 3073 3068 3063 3059 3057 3054 3051 3047 3043 3039 3036 3034 3029 3026 3024 3021 3017 3016
3099 3102 3104 3105 3105 3105 3105 3105 3105 3104 3103 3102 3101 3100 3098 3096 3094 3091 3088 3085 3082 3079 3075 3071 3068 3064 3061 3055 3050 3048 3045 3042 3038 3035 3030 3027 3024 3023 3019 3015 3011 3008 3005
3097 3099 3101 3102 3102 3102 3103 3102 3102 3101 3100 3099 3097 3096 3094 3092 3090 3087 3084 3080 3077 3073 3070 3065 3061 3057 3054 3048 3042 3036 3030 3032 3027 3024 3020 3016 3014 3010 3007 3004 3001 2998 2994
3095 3097 3099 3099 3100 3099 3099 3099 3098 3098 3097 3095 3094 3092 3090 3088 3085 3081 3078 3074 3070 3067 3063 3059 3055 3050 3046 3043 3037 3028 3019 3012 3007 3011 3009 3007 3003 2999 2997 2993 2989 2985 2980
3093 3094 3096 3097 3097 3097 3096 3096 3095 3094 3093 3092 3090 3088 3086 3083 3079 3075 3072 3069 3065 3061 3057 3052 3048 3043 3036 3032 3029 3025 3020 3012 3002 2988 2992 2992 2989 2986 2982 2977 2972 2969 2963
3090 3092 3093 3094 3094 3094 3093 3093 3092 3091 3090 3088 3087 3083 3080 3077 3075 3070 3067 3064 3060 3055 3050 3045 3040 3035 3029 3025 3020 3015 3012 3007 3002 2992 2976 2976 2975 2972 2967 2962 2957 2953 2948
3087 3089 3090 3091 3091 3091 3091 3090 3089 3088 3087 3085 3082 3078 3075 3072 3069 3065 3061 3056 3052 3047 3042 3037 3032 3027 3023 3019 3014 3009 3003 2997 2990 2983 2974 2967 2958 2955 2951 2947 2940 2935 2929